iso_date,epoch_date,Year,Hour,Min,DOY,POS_DOY,Lat,Lon,BP,Ts,Ta,has_bp,has_ts,has_ta,BuoyID,Buoy_Type,Buoy_Owner,Logistics,Hemisphere
2019-02-08T06:00:00Z,1549605600,2019,6,0,39.25,39.25,-67.731,-2.749,978.3,0.6,-999.0,yes,yes,no,300234066433290,BD2GI,AOML,SA_AGULHAS,South
2019-02-08T07:00:28Z,1549609229,2019,7,0,39.292,39.292,-67.734,-2.761,978.6,0.61,-999.0,yes,yes,no,300234066433290,BD2GI,AOML,SA_AGULHAS,South
2019-02-08T07:59:31Z,1549612771,2019,8,0,39.333,39.333,-67.737,-2.772,979.1,0.62,-999.0,yes,yes,no,300234066433290,BD2GI,AOML,SA_AGULHAS,South
2019-02-08T09:00:00Z,1549616400,2019,9,0,39.375,39.375,-67.74,-2.781,979.3,0.62,-999.0,yes,yes,no,300234066433290,BD2GI,AOML,SA_AGULHAS,South
2019-02-08T10:00:28Z,1549620029,2019,10,0,39.417,39.417,-67.743,-2.782,979.6,0.64,-999.0,yes,yes,no,300234066433290,BD2GI,AOML,SA_AGULHAS,South
2019-02-08T10:59:31Z,1549623571,2019,11,0,39.458,39.458,-67.745,-2.778,979.9,0.63,-999.0,yes,yes,no,300234066433290,BD2GI,AOML,SA_AGULHAS,South
2019-02-08T12:00:00Z,1549627200,2019,12,0,39.5,39.5,-67.745,-2.775,980.0,0.64,-999.0,yes,yes,no,300234066433290,BD2GI,AOML,SA_AGULHAS,South
2019-02-08T13:00:28Z,1549630829,2019,13,0,39.542,39.542,-67.743,-2.769,980.2,0.64,-999.0,yes,yes,no,300234066433290,BD2GI,AOML,SA_AGULHAS,South
2019-02-08T13:59:31Z,1549634371,2019,14,0,39.583,39.583,-67.741,-2.767,980.3,0.65,-999.0,yes,yes,no,300234066433290,BD2GI,AOML,SA_AGULHAS,South
2019-02-08T15:00:00Z,1549638000,2019,15,0,39.625,39.625,-67.737,-2.769,980.3,0.65,-999.0,yes,yes,no,300234066433290,BD2GI,AOML,SA_AGULHAS,South
2019-02-08T16:00:28Z,1549641629,2019,16,0,39.667,39.667,-67.734,-2.776,980.2,0.64,-999.0,yes,yes,no,300234066433290,BD2GI,AOML,SA_AGULHAS,South
2019-02-08T16:59:31Z,1549645171,2019,17,0,39.708,39.708,-67.731,-2.789,980.1,0.62,-999.0,yes,yes,no,300234066433290,BD2GI,AOML,SA_AGULHAS,South
2019-02-08T18:00:00Z,1549648800,2019,18,0,39.75,39.75,-67.731,-2.805,980.2,0.62,-999.0,yes,yes,no,300234066433290,BD2GI,AOML,SA_AGULHAS,South
2019-02-08T19:00:28Z,1549652429,2019,19,0,39.792,39.792,-67.731,-2.824,980.2,0.61,-999.0,yes,yes,no,300234066433290,BD2GI,AOML,SA_AGULHAS,South
2019-02-08T19:59:31Z,1549655971,2019,20,0,39.833,39.833,-67.732,-2.842,980.0,0.6,-999.0,yes,yes,no,300234066433290,BD2GI,AOML,SA_AGULHAS,South
2019-02-08T21:00:00Z,1549659600,2019,21,0,39.875,39.875,-67.736,-2.857,979.9,0.6,-999.0,yes,yes,no,300234066433290,BD2GI,AOML,SA_AGULHAS,South
2019-02-08T22:00:28Z,1549663229,2019,22,0,39.917,39.917,-67.74,-2.865,979.7,0.59,-999.0,yes,yes,no,300234066433290,BD2GI,AOML,SA_AGULHAS,South
2019-02-08T22:59:31Z,1549666771,2019,23,0,39.958,39.958,-67.744,-2.87,979.4,0.58,-999.0,yes,yes,no,300234066433290,BD2GI,AOML,SA_AGULHAS,South
2019-02-09T00:00:00Z,1549670400,2019,0,0,40.0,40.0,-67.747,-2.866,979.2,0.58,-999.0,yes,yes,no,300234066433290,BD2GI,AOML,SA_AGULHAS,South
2019-02-09T01:00:28Z,1549674029,2019,1,0,40.042,40.042,-67.748,-2.86,978.9,0.58,-999.0,yes,yes,no,300234066433290,BD2GI,AOML,SA_AGULHAS,South
2019-02-09T01:59:31Z,1549677571,2019,2,0,40.083,40.083,-67.747,-2.853,978.7,0.57,-999.0,yes,yes,no,300234066433290,BD2GI,AOML,SA_AGULHAS,South
2019-02-09T03:00:00Z,1549681200,2019,3,0,40.125,40.125,-67.745,-2.846,978.4,0.57,-999.0,yes,yes,no,300234066433290,BD2GI,AOML,SA_AGULHAS,South
2019-02-09T04:00:28Z,1549684829,2019,4,0,40.167,40.167,-67.741,-2.844,978.4,0.57,-999.0,yes,yes,no,300234066433290,BD2GI,AOML,SA_AGULHAS,South
2019-02-09T04:59:31Z,1549688371,2019,5,0,40.208,40.208,-67.737,-2.849,978.3,0.56,-999.0,yes,yes,no,300234066433290,BD2GI,AOML,SA_AGULHAS,South
2019-02-09T06:00:00Z,1549692000,2019,6,0,40.25,40.25,-67.734,-2.859,978.2,0.56,-999.0,yes,yes,no,300234066433290,BD2GI,AOML,SA_AGULHAS,South
2019-02-09T07:00:28Z,1549695629,2019,7,0,40.292,40.292,-67.731,-2.877,978.1,0.56,-999.0,yes,yes,no,300234066433290,BD2GI,AOML,SA_AGULHAS,South
2019-02-09T07:59:31Z,1549699171,2019,8,0,40.333,40.333,-67.732,-2.896,977.9,0.57,-999.0,yes,yes,no,300234066433290,BD2GI,AOML,SA_AGULHAS,South
2019-02-09T09:00:00Z,1549702800,2019,9,0,40.375,40.375,-67.734,-2.914,977.7,0.58,-999.0,yes,yes,no,300234066433290,BD2GI,AOML,SA_AGULHAS,South
2019-02-09T10:00:28Z,1549706429,2019,10,0,40.417,40.417,-67.738,-2.924,977.6,0.6,-999.0,yes,yes,no,300234066433290,BD2GI,AOML,SA_AGULHAS,South
2019-02-09T10:59:31Z,1549709971,2019,11,0,40.458,40.458,-67.742,-2.928,977.5,0.61,-999.0,yes,yes,no,300234066433290,BD2GI,AOML,SA_AGULHAS,South
2019-02-09T12:00:00Z,1549713600,2019,12,0,40.5,40.5,-67.745,-2.925,977.5,0.64,-999.0,yes,yes,no,300234066433290,BD2GI,AOML,SA_AGULHAS,South
2019-02-09T13:00:28Z,1549717229,2019,13,0,40.542,40.542,-67.747,-2.917,977.5,0.66,-999.0,yes,yes,no,300234066433290,BD2GI,AOML,SA_AGULHAS,South
2019-02-09T13:59:31Z,1549720771,2019,14,0,40.583,40.583,-67.748,-2.909,977.4,0.68,-999.0,yes,yes,no,300234066433290,BD2GI,AOML,SA_AGULHAS,South
2019-02-09T15:00:00Z,1549724400,2019,15,0,40.625,40.625,-67.747,-2.9,977.4,0.71,-999.0,yes,yes,no,300234066433290,BD2GI,AOML,SA_AGULHAS,South
2019-02-09T16:00:28Z,1549728029,2019,16,0,40.667,40.667,-67.743,-2.893,977.0,0.71,-999.0,yes,yes,no,300234066433290,BD2GI,AOML,SA_AGULHAS,South
2019-02-09T16:59:31Z,1549731571,2019,17,0,40.708,40.708,-67.74,-2.893,976.8,0.7,-999.0,yes,yes,no,300234066433290,BD2GI,AOML,SA_AGULHAS,South
2019-02-09T18:00:00Z,1549735200,2019,18,0,40.75,40.75,-67.737,-2.898,976.4,0.69,-999.0,yes,yes,no,300234066433290,BD2GI,AOML,SA_AGULHAS,South
2019-02-09T19:00:28Z,1549738829,2019,19,0,40.792,40.792,-67.734,-2.907,976.2,0.68,-999.0,yes,yes,no,300234066433290,BD2GI,AOML,SA_AGULHAS,South
2019-02-09T19:59:31Z,1549742371,2019,20,0,40.833,40.833,-67.733,-2.921,976.0,0.67,-999.0,yes,yes,no,300234066433290,BD2GI,AOML,SA_AGULHAS,South
2019-02-09T21:00:00Z,1549746000,2019,21,0,40.875,40.875,-67.733,-2.935,975.9,0.67,-999.0,yes,yes,no,300234066433290,BD2GI,AOML,SA_AGULHAS,South
2019-02-09T22:00:28Z,1549749629,2019,22,0,40.917,40.917,-67.735,-2.947,975.7,0.66,-999.0,yes,yes,no,300234066433290,BD2GI,AOML,SA_AGULHAS,South
2019-02-09T22:59:31Z,1549753171,2019,23,0,40.958,40.958,-67.738,-2.955,975.7,0.66,-999.0,yes,yes,no,300234066433290,BD2GI,AOML,SA_AGULHAS,South
2019-02-10T00:00:00Z,1549756800,2019,0,0,41.0,41.0,-67.741,-2.956,975.6,0.65,-999.0,yes,yes,no,300234066433290,BD2GI,AOML,SA_AGULHAS,South
2019-02-10T01:00:28Z,1549760429,2019,1,0,41.042,41.042,-67.743,-2.954,976.0,0.64,-999.0,yes,yes,no,300234066433290,BD2GI,AOML,SA_AGULHAS,South
2019-02-10T01:59:31Z,1549763971,2019,2,0,41.083,41.083,-67.744,-2.949,976.3,0.64,-999.0,yes,yes,no,300234066433290,BD2GI,AOML,SA_AGULHAS,South
2019-02-10T03:00:00Z,1549767600,2019,3,0,41.125,41.125,-67.744,-2.941,976.8,0.64,-999.0,yes,yes,no,300234066433290,BD2GI,AOML,SA_AGULHAS,South
2019-02-10T04:00:28Z,1549771229,2019,4,0,41.167,41.167,-67.741,-2.935,977.4,0.63,-999.0,yes,yes,no,300234066433290,BD2GI,AOML,SA_AGULHAS,South
2019-02-10T04:59:31Z,1549774771,2019,5,0,41.208,41.208,-67.738,-2.935,978.1,0.63,-999.0,yes,yes,no,300234066433290,BD2GI,AOML,SA_AGULHAS,South
2019-02-10T06:00:00Z,1549778400,2019,6,0,41.25,41.25,-67.735,-2.942,978.3,0.63,-999.0,yes,yes,no,300234066433290,BD2GI,AOML,SA_AGULHAS,South
2019-02-10T07:00:28Z,1549782029,2019,7,0,41.292,41.292,-67.732,-2.954,978.5,0.63,-999.0,yes,yes,no,300234066433290,BD2GI,AOML,SA_AGULHAS,South
2019-02-10T07:59:31Z,1549785571,2019,8,0,41.333,41.333,-67.732,-2.969,978.6,0.64,-999.0,yes,yes,no,300234066433290,BD2GI,AOML,SA_AGULHAS,South
2019-02-10T09:00:00Z,1549789200,2019,9,0,41.375,41.375,-67.733,-2.984,979.0,0.64,-999.0,yes,yes,no,300234066433290,BD2GI,AOML,SA_AGULHAS,South
2019-02-10T10:00:28Z,1549792829,2019,10,0,41.417,41.417,-67.735,-2.996,979.3,0.67,-999.0,yes,yes,no,300234066433290,BD2GI,AOML,SA_AGULHAS,South
2019-02-10T10:59:31Z,1549796371,2019,11,0,41.458,41.458,-67.738,-3.005,979.6,0.69,-999.0,yes,yes,no,300234066433290,BD2GI,AOML,SA_AGULHAS,South
2019-02-10T12:00:00Z,1549800000,2019,12,0,41.5,41.5,-67.742,-3.008,980.0,0.72,-999.0,yes,yes,no,300234066433290,BD2GI,AOML,SA_AGULHAS,South
2019-02-10T13:00:28Z,1549803629,2019,13,0,41.542,41.542,-67.746,-3.006,980.5,0.75,-999.0,yes,yes,no,300234066433290,BD2GI,AOML,SA_AGULHAS,South
2019-02-10T13:59:31Z,1549807171,2019,14,0,41.583,41.583,-67.748,-2.999,980.7,0.77,-999.0,yes,yes,no,300234066433290,BD2GI,AOML,SA_AGULHAS,South
2019-02-10T15:00:00Z,1549810800,2019,15,0,41.625,41.625,-67.748,-2.992,981.1,0.75,-999.0,yes,yes,no,300234066433290,BD2GI,AOML,SA_AGULHAS,South
2019-02-10T16:00:28Z,1549814429,2019,16,0,41.667,41.667,-67.746,-2.985,981.4,0.74,-999.0,yes,yes,no,300234066433290,BD2GI,AOML,SA_AGULHAS,South
2019-02-10T16:59:31Z,1549817971,2019,17,0,41.708,41.708,-67.744,-2.983,981.7,0.72,-999.0,yes,yes,no,300234066433290,BD2GI,AOML,SA_AGULHAS,South
2019-02-10T18:00:00Z,1549821600,2019,18,0,41.75,41.75,-67.74,-2.988,982.2,0.72,-999.0,yes,yes,no,300234066433290,BD2GI,AOML,SA_AGULHAS,South
2019-02-10T19:00:28Z,1549825229,2019,19,0,41.792,41.792,-67.737,-2.999,982.3,0.7,-999.0,yes,yes,no,300234066433290,BD2GI,AOML,SA_AGULHAS,South
2019-02-10T19:59:31Z,1549828771,2019,20,0,41.833,41.833,-67.734,-3.013,982.4,0.69,-999.0,yes,yes,no,300234066433290,BD2GI,AOML,SA_AGULHAS,South
2019-02-10T21:00:00Z,1549832400,2019,21,0,41.875,41.875,-67.734,-3.03,982.4,0.67,-999.0,yes,yes,no,300234066433290,BD2GI,AOML,SA_AGULHAS,South
2019-02-10T22:00:28Z,1549836029,2019,22,0,41.917,41.917,-67.734,-3.045,982.3,0.67,-999.0,yes,yes,no,300234066433290,BD2GI,AOML,SA_AGULHAS,South
2019-02-10T22:59:31Z,1549839571,2019,23,0,41.958,41.958,-67.737,-3.057,981.9,0.65,-999.0,yes,yes,no,300234066433290,BD2GI,AOML,SA_AGULHAS,South
2019-02-11T00:00:00Z,1549843200,2019,0,0,42.0,42.0,-67.74,-3.065,981.6,0.65,-999.0,yes,yes,no,300234066433290,BD2GI,AOML,SA_AGULHAS,South
2019-02-11T01:00:28Z,1549846829,2019,1,0,42.042,42.042,-67.743,-3.067,981.6,0.62,-999.0,yes,yes,no,300234066433290,BD2GI,AOML,SA_AGULHAS,South
2019-02-11T01:59:31Z,1549850371,2019,2,0,42.083,42.083,-67.745,-3.064,981.5,0.62,-999.0,yes,yes,no,300234066433290,BD2GI,AOML,SA_AGULHAS,South
2019-02-11T03:00:00Z,1549854000,2019,3,0,42.125,42.125,-67.746,-3.058,981.3,0.61,-999.0,yes,yes,no,300234066433290,BD2GI,AOML,SA_AGULHAS,South
2019-02-11T04:00:28Z,1549857629,2019,4,0,42.167,42.167,-67.746,-3.051,981.1,0.61,-999.0,yes,yes,no,300234066433290,BD2GI,AOML,SA_AGULHAS,South
2019-02-11T04:59:31Z,1549861171,2019,5,0,42.208,42.208,-67.744,-3.048,980.9,0.61,-999.0,yes,yes,no,300234066433290,BD2GI,AOML,SA_AGULHAS,South
2019-02-11T06:00:00Z,1549864800,2019,6,0,42.25,42.25,-67.741,-3.05,980.6,0.61,-999.0,yes,yes,no,300234066433290,BD2GI,AOML,SA_AGULHAS,South
2019-02-11T07:00:28Z,1549868429,2019,7,0,42.292,42.292,-67.738,-3.057,980.4,0.61,-999.0,yes,yes,no,300234066433290,BD2GI,AOML,SA_AGULHAS,South
2019-02-11T07:59:31Z,1549871971,2019,8,0,42.333,42.333,-67.736,-3.069,980.0,0.62,-999.0,yes,yes,no,300234066433290,BD2GI,AOML,SA_AGULHAS,South
2019-02-11T09:00:00Z,1549875600,2019,9,0,42.375,42.375,-67.736,-3.082,979.6,0.62,-999.0,yes,yes,no,300234066433290,BD2GI,AOML,SA_AGULHAS,South
2019-02-11T10:00:28Z,1549879229,2019,10,0,42.417,42.417,-67.736,-3.097,979.2,0.62,-999.0,yes,yes,no,300234066433290,BD2GI,AOML,SA_AGULHAS,South
2019-02-11T10:59:31Z,1549882771,2019,11,0,42.458,42.458,-67.738,-3.111,978.9,0.64,-999.0,yes,yes,no,300234066433290,BD2GI,AOML,SA_AGULHAS,South
2019-02-11T12:00:00Z,1549886400,2019,12,0,42.5,42.5,-67.742,-3.124,978.7,0.66,-999.0,yes,yes,no,300234066433290,BD2GI,AOML,SA_AGULHAS,South
2019-02-11T13:00:28Z,1549890029,2019,13,0,42.542,42.542,-67.746,-3.133,978.6,0.68,-999.0,yes,yes,no,300234066433290,BD2GI,AOML,SA_AGULHAS,South
2019-02-11T13:59:31Z,1549893571,2019,14,0,42.583,42.583,-67.75,-3.137,978.3,0.68,-999.0,yes,yes,no,300234066433290,BD2GI,AOML,SA_AGULHAS,South
2019-02-11T15:00:00Z,1549897200,2019,15,0,42.625,42.625,-67.754,-3.138,978.0,0.69,-999.0,yes,yes,no,300234066433290,BD2GI,AOML,SA_AGULHAS,South
2019-02-11T16:00:28Z,1549900829,2019,16,0,42.667,42.667,-67.757,-3.137,978.0,0.67,-999.0,yes,yes,no,300234066433290,BD2GI,AOML,SA_AGULHAS,South
2019-02-11T16:59:31Z,1549904371,2019,17,0,42.708,42.708,-67.758,-3.134,977.7,0.67,-999.0,yes,yes,no,300234066433290,BD2GI,AOML,SA_AGULHAS,South
2019-02-11T18:00:00Z,1549908000,2019,18,0,42.75,42.75,-67.758,-3.137,977.9,0.67,-999.0,yes,yes,no,300234066433290,BD2GI,AOML,SA_AGULHAS,South
2019-02-11T19:00:28Z,1549911629,2019,19,0,42.792,42.792,-67.756,-3.142,977.7,0.66,-999.0,yes,yes,no,300234066433290,BD2GI,AOML,SA_AGULHAS,South
2019-02-11T19:59:31Z,1549915171,2019,20,0,42.833,42.833,-67.753,-3.156,977.5,0.66,-999.0,yes,yes,no,300234066433290,BD2GI,AOML,SA_AGULHAS,South
2019-02-11T21:00:00Z,1549918800,2019,21,0,42.875,42.875,-67.752,-3.176,977.6,0.65,-999.0,yes,yes,no,300234066433290,BD2GI,AOML,SA_AGULHAS,South
2019-02-11T22:00:28Z,1549922429,2019,22,0,42.917,42.917,-67.753,-3.195,977.7,0.65,-999.0,yes,yes,no,300234066433290,BD2GI,AOML,SA_AGULHAS,South
2019-02-11T22:59:31Z,1549925971,2019,23,0,42.958,42.958,-67.757,-3.213,977.8,0.64,-999.0,yes,yes,no,300234066433290,BD2GI,AOML,SA_AGULHAS,South
2019-02-12T00:00:00Z,1549929600,2019,0,0,43.0,43.0,-67.761,-3.226,978.0,0.63,-999.0,yes,yes,no,300234066433290,BD2GI,AOML,SA_AGULHAS,South
2019-02-12T01:00:28Z,1549933229,2019,1,0,43.042,43.042,-67.765,-3.234,978.1,0.63,-999.0,yes,yes,no,300234066433290,BD2GI,AOML,SA_AGULHAS,South
2019-02-12T01:59:31Z,1549936771,2019,2,0,43.083,43.083,-67.769,-3.238,978.2,0.62,-999.0,yes,yes,no,300234066433290,BD2GI,AOML,SA_AGULHAS,South
2019-02-12T03:00:00Z,1549940400,2019,3,0,43.125,43.125,-67.773,-3.24,978.1,0.62,-999.0,yes,yes,no,300234066433290,BD2GI,AOML,SA_AGULHAS,South
2019-02-12T04:00:28Z,1549944029,2019,4,0,43.167,43.167,-67.777,-3.241,978.3,0.61,-999.0,yes,yes,no,300234066433290,BD2GI,AOML,SA_AGULHAS,South
2019-02-12T04:59:31Z,1549947571,2019,5,0,43.208,43.208,-67.779,-3.242,978.6,0.61,-999.0,yes,yes,no,300234066433290,BD2GI,AOML,SA_AGULHAS,South
2019-02-12T06:00:00Z,1549951200,2019,6,0,43.25,43.25,-67.78,-3.241,978.7,0.6,-999.0,yes,yes,no,300234066433290,BD2GI,AOML,SA_AGULHAS,South
2019-02-12T07:00:28Z,1549954829,2019,7,0,43.292,43.292,-67.781,-3.244,979.2,0.6,-999.0,yes,yes,no,300234066433290,BD2GI,AOML,SA_AGULHAS,South
2019-02-12T07:59:31Z,1549958371,2019,8,0,43.333,43.333,-67.781,-3.248,979.4,0.6,-999.0,yes,yes,no,300234066433290,BD2GI,AOML,SA_AGULHAS,South
2019-02-12T09:00:00Z,1549962000,2019,9,0,43.375,43.375,-67.779,-3.255,979.5,0.6,-999.0,yes,yes,no,300234066433290,BD2GI,AOML,SA_AGULHAS,South
2019-02-12T10:00:28Z,1549965629,2019,10,0,43.417,43.417,-67.778,-3.266,979.6,0.6,-999.0,yes,yes,no,300234066433290,BD2GI,AOML,SA_AGULHAS,South
2019-02-12T10:59:31Z,1549969171,2019,11,0,43.458,43.458,-67.778,-3.28,979.5,0.6,-999.0,yes,yes,no,300234066433290,BD2GI,AOML,SA_AGULHAS,South
2019-02-12T12:00:00Z,1549972800,2019,12,0,43.5,43.5,-67.779,-3.293,979.6,0.59,-999.0,yes,yes,no,300234066433290,BD2GI,AOML,SA_AGULHAS,South
2019-02-12T13:00:28Z,1549976429,2019,13,0,43.542,43.542,-67.782,-3.308,979.4,0.61,-999.0,yes,yes,no,300234066433290,BD2GI,AOML,SA_AGULHAS,South
2019-02-12T13:59:31Z,1549979971,2019,14,0,43.583,43.583,-67.785,-3.318,979.6,0.6,-999.0,yes,yes,no,300234066433290,BD2GI,AOML,SA_AGULHAS,South
2019-02-12T15:00:00Z,1549983600,2019,15,0,43.625,43.625,-67.79,-3.324,979.6,0.6,-999.0,yes,yes,no,300234066433290,BD2GI,AOML,SA_AGULHAS,South
2019-02-12T16:00:28Z,1549987229,2019,16,0,43.667,43.667,-67.793,-3.329,979.5,0.6,-999.0,yes,yes,no,300234066433290,BD2GI,AOML,SA_AGULHAS,South
2019-02-12T16:59:31Z,1549990771,2019,17,0,43.708,43.708,-67.795,-3.33,979.6,0.59,-999.0,yes,yes,no,300234066433290,BD2GI,AOML,SA_AGULHAS,South
2019-02-12T18:00:00Z,1549994400,2019,18,0,43.75,43.75,-67.796,-3.333,979.6,0.59,-999.0,yes,yes,no,300234066433290,BD2GI,AOML,SA_AGULHAS,South
2019-02-12T19:00:28Z,1549998029,2019,19,0,43.792,43.792,-67.795,-3.338,979.7,0.58,-999.0,yes,yes,no,300234066433290,BD2GI,AOML,SA_AGULHAS,South
2019-02-12T19:59:31Z,1550001571,2019,20,0,43.833,43.833,-67.795,-3.343,980.0,0.58,-999.0,yes,yes,no,300234066433290,BD2GI,AOML,SA_AGULHAS,South
2019-02-12T21:00:00Z,1550005200,2019,21,0,43.875,43.875,-67.793,-3.351,980.1,0.57,-999.0,yes,yes,no,300234066433290,BD2GI,AOML,SA_AGULHAS,South
2019-02-12T22:00:28Z,1550008829,2019,22,0,43.917,43.917,-67.792,-3.361,980.2,0.57,-999.0,yes,yes,no,300234066433290,BD2GI,AOML,SA_AGULHAS,South
2019-02-12T22:59:31Z,1550012371,2019,23,0,43.958,43.958,-67.791,-3.374,980.6,0.56,-999.0,yes,yes,no,300234066433290,BD2GI,AOML,SA_AGULHAS,South
2019-02-13T00:00:00Z,1550016000,2019,0,0,44.0,44.0,-67.791,-3.389,981.1,0.55,-999.0,yes,yes,no,300234066433290,BD2GI,AOML,SA_AGULHAS,South
2019-02-13T01:00:28Z,1550019629,2019,1,0,44.042,44.042,-67.793,-3.404,981.5,0.56,-999.0,yes,yes,no,300234066433290,BD2GI,AOML,SA_AGULHAS,South
2019-02-13T01:59:31Z,1550023171,2019,2,0,44.083,44.083,-67.795,-3.416,982.0,0.55,-999.0,yes,yes,no,300234066433290,BD2GI,AOML,SA_AGULHAS,South
2019-02-13T03:00:00Z,1550026800,2019,3,0,44.125,44.125,-67.798,-3.424,982.3,0.55,-999.0,yes,yes,no,300234066433290,BD2GI,AOML,SA_AGULHAS,South
2019-02-13T04:00:28Z,1550030429,2019,4,0,44.167,44.167,-67.801,-3.43,982.8,0.55,-999.0,yes,yes,no,300234066433290,BD2GI,AOML,SA_AGULHAS,South
2019-02-13T04:59:31Z,1550033971,2019,5,0,44.208,44.208,-67.805,-3.433,983.3,0.55,-999.0,yes,yes,no,300234066433290,BD2GI,AOML,SA_AGULHAS,South
2019-02-13T06:00:00Z,1550037600,2019,6,0,44.25,44.25,-67.807,-3.431,983.8,0.54,-999.0,yes,yes,no,300234066433290,BD2GI,AOML,SA_AGULHAS,South
2019-02-13T07:00:28Z,1550041229,2019,7,0,44.292,44.292,-67.809,-3.426,984.5,0.54,-999.0,yes,yes,no,300234066433290,BD2GI,AOML,SA_AGULHAS,South
2019-02-13T07:59:31Z,1550044771,2019,8,0,44.333,44.333,-67.809,-3.423,985.0,0.54,-999.0,yes,yes,no,300234066433290,BD2GI,AOML,SA_AGULHAS,South
2019-02-13T09:00:00Z,1550048400,2019,9,0,44.375,44.375,-67.807,-3.423,985.5,0.53,-999.0,yes,yes,no,300234066433290,BD2GI,AOML,SA_AGULHAS,South
2019-02-13T10:00:28Z,1550052029,2019,10,0,44.417,44.417,-67.806,-3.427,986.0,0.54,-999.0,yes,yes,no,300234066433290,BD2GI,AOML,SA_AGULHAS,South
2019-02-13T10:59:31Z,1550055571,2019,11,0,44.458,44.458,-67.805,-3.433,986.4,0.54,-999.0,yes,yes,no,300234066433290,BD2GI,AOML,SA_AGULHAS,South
2019-02-13T12:00:00Z,1550059200,2019,12,0,44.5,44.5,-67.804,-3.442,986.8,0.53,-999.0,yes,yes,no,300234066433290,BD2GI,AOML,SA_AGULHAS,South
2019-02-13T13:00:28Z,1550062829,2019,13,0,44.542,44.542,-67.804,-3.453,987.3,0.53,-999.0,yes,yes,no,300234066433290,BD2GI,AOML,SA_AGULHAS,South
2019-02-13T13:59:31Z,1550066371,2019,14,0,44.583,44.583,-67.805,-3.465,987.5,0.55,-999.0,yes,yes,no,300234066433290,BD2GI,AOML,SA_AGULHAS,South
2019-02-13T15:00:00Z,1550070000,2019,15,0,44.625,44.625,-67.806,-3.475,987.9,0.54,-999.0,yes,yes,no,300234066433290,BD2GI,AOML,SA_AGULHAS,South
2019-02-13T16:00:28Z,1550073629,2019,16,0,44.667,44.667,-67.809,-3.485,988.1,0.55,-999.0,yes,yes,no,300234066433290,BD2GI,AOML,SA_AGULHAS,South
2019-02-13T16:59:31Z,1550077171,2019,17,0,44.708,44.708,-67.813,-3.49,988.6,0.54,-999.0,yes,yes,no,300234066433290,BD2GI,AOML,SA_AGULHAS,South
2019-02-13T18:00:00Z,1550080800,2019,18,0,44.75,44.75,-67.815,-3.49,988.8,0.54,-999.0,yes,yes,no,300234066433290,BD2GI,AOML,SA_AGULHAS,South
2019-02-13T19:00:28Z,1550084429,2019,19,0,44.792,44.792,-67.816,-3.49,989.2,0.53,-999.0,yes,yes,no,300234066433290,BD2GI,AOML,SA_AGULHAS,South
2019-02-13T19:59:31Z,1550087971,2019,20,0,44.833,44.833,-67.817,-3.49,989.5,0.53,-999.0,yes,yes,no,300234066433290,BD2GI,AOML,SA_AGULHAS,South
2019-02-13T21:00:00Z,1550091600,2019,21,0,44.875,44.875,-67.818,-3.488,989.7,0.53,-999.0,yes,yes,no,300234066433290,BD2GI,AOML,SA_AGULHAS,South
2019-02-13T22:00:28Z,1550095229,2019,22,0,44.917,44.917,-67.818,-3.486,990.0,0.51,-999.0,yes,yes,no,300234066433290,BD2GI,AOML,SA_AGULHAS,South
2019-02-13T22:59:31Z,1550098771,2019,23,0,44.958,44.958,-67.816,-3.487,990.3,0.51,-999.0,yes,yes,no,300234066433290,BD2GI,AOML,SA_AGULHAS,South
2019-02-14T00:00:00Z,1550102400,2019,0,0,45.0,45.0,-67.814,-3.491,990.3,0.5,-999.0,yes,yes,no,300234066433290,BD2GI,AOML,SA_AGULHAS,South
2019-02-14T01:00:28Z,1550106029,2019,1,0,45.042,45.042,-67.813,-3.497,990.1,0.51,-999.0,yes,yes,no,300234066433290,BD2GI,AOML,SA_AGULHAS,South
2019-02-14T01:59:31Z,1550109571,2019,2,0,45.083,45.083,-67.812,-3.505,989.9,0.5,-999.0,yes,yes,no,300234066433290,BD2GI,AOML,SA_AGULHAS,South
2019-02-14T03:00:00Z,1550113200,2019,3,0,45.125,45.125,-67.812,-3.513,989.8,0.5,-999.0,yes,yes,no,300234066433290,BD2GI,AOML,SA_AGULHAS,South
2019-02-14T04:00:28Z,1550116829,2019,4,0,45.167,45.167,-67.813,-3.521,989.8,0.49,-999.0,yes,yes,no,300234066433290,BD2GI,AOML,SA_AGULHAS,South
2019-02-14T04:59:31Z,1550120371,2019,5,0,45.208,45.208,-67.814,-3.526,989.6,0.49,-999.0,yes,yes,no,300234066433290,BD2GI,AOML,SA_AGULHAS,South
2019-02-14T06:00:00Z,1550124000,2019,6,0,45.25,45.25,-67.815,-3.53,989.7,0.5,-999.0,yes,yes,no,300234066433290,BD2GI,AOML,SA_AGULHAS,South
2019-02-14T07:00:28Z,1550127629,2019,7,0,45.292,45.292,-67.818,-3.534,989.6,0.5,-999.0,yes,yes,no,300234066433290,BD2GI,AOML,SA_AGULHAS,South
2019-02-14T07:59:31Z,1550131171,2019,8,0,45.333,45.333,-67.82,-3.537,989.7,0.5,-999.0,yes,yes,no,300234066433290,BD2GI,AOML,SA_AGULHAS,South
2019-02-14T09:00:00Z,1550134800,2019,9,0,45.375,45.375,-67.822,-3.538,989.9,0.52,-999.0,yes,yes,no,300234066433290,BD2GI,AOML,SA_AGULHAS,South
2019-02-14T10:00:28Z,1550138429,2019,10,0,45.417,45.417,-67.822,-3.538,989.8,0.53,-999.0,yes,yes,no,300234066433290,BD2GI,AOML,SA_AGULHAS,South
2019-02-14T10:59:31Z,1550141971,2019,11,0,45.458,45.458,-67.822,-3.54,989.9,0.55,-999.0,yes,yes,no,300234066433290,BD2GI,AOML,SA_AGULHAS,South
2019-02-14T12:00:00Z,1550145600,2019,12,0,45.5,45.5,-67.822,-3.546,989.9,0.6,-999.0,yes,yes,no,300234066433290,BD2GI,AOML,SA_AGULHAS,South
2019-02-14T13:00:28Z,1550149229,2019,13,0,45.542,45.542,-67.821,-3.554,990.0,0.62,-999.0,yes,yes,no,300234066433290,BD2GI,AOML,SA_AGULHAS,South
2019-02-14T13:59:31Z,1550152771,2019,14,0,45.583,45.583,-67.821,-3.563,990.2,0.64,-999.0,yes,yes,no,300234066433290,BD2GI,AOML,SA_AGULHAS,South
2019-02-14T15:00:00Z,1550156400,2019,15,0,45.625,45.625,-67.821,-3.575,989.9,0.63,-999.0,yes,yes,no,300234066433290,BD2GI,AOML,SA_AGULHAS,South
2019-02-14T16:00:28Z,1550160029,2019,16,0,45.667,45.667,-67.822,-3.588,990.1,0.62,-999.0,yes,yes,no,300234066433290,BD2GI,AOML,SA_AGULHAS,South
2019-02-14T16:59:31Z,1550163571,2019,17,0,45.708,45.708,-67.822,-3.603,990.2,0.64,-999.0,yes,yes,no,300234066433290,BD2GI,AOML,SA_AGULHAS,South
2019-02-14T18:00:00Z,1550167200,2019,18,0,45.75,45.75,-67.824,-3.618,990.5,0.64,-999.0,yes,yes,no,300234066433290,BD2GI,AOML,SA_AGULHAS,South
2019-02-14T19:00:28Z,1550170829,2019,19,0,45.792,45.792,-67.826,-3.631,990.8,0.62,-999.0,yes,yes,no,300234066433290,BD2GI,AOML,SA_AGULHAS,South
2019-02-14T19:59:31Z,1550174371,2019,20,0,45.833,45.833,-67.828,-3.64,991.2,0.62,-999.0,yes,yes,no,300234066433290,BD2GI,AOML,SA_AGULHAS,South
2019-02-14T21:00:00Z,1550178000,2019,21,0,45.875,45.875,-67.829,-3.649,991.3,0.64,-999.0,yes,yes,no,300234066433290,BD2GI,AOML,SA_AGULHAS,South
2019-02-14T22:00:28Z,1550181629,2019,22,0,45.917,45.917,-67.83,-3.653,991.4,0.61,-999.0,yes,yes,no,300234066433290,BD2GI,AOML,SA_AGULHAS,South
2019-02-14T22:59:31Z,1550185171,2019,23,0,45.958,45.958,-67.831,-3.657,991.5,0.6,-999.0,yes,yes,no,300234066433290,BD2GI,AOML,SA_AGULHAS,South
2019-02-15T00:00:00Z,1550188800,2019,0,0,46.0,46.0,-67.83,-3.659,991.6,0.6,-999.0,yes,yes,no,300234066433290,BD2GI,AOML,SA_AGULHAS,South
2019-02-15T01:00:28Z,1550192429,2019,1,0,46.042,46.042,-67.83,-3.663,991.8,0.65,-999.0,yes,yes,no,300234066433290,BD2GI,AOML,SA_AGULHAS,South
2019-02-15T01:59:31Z,1550195971,2019,2,0,46.083,46.083,-67.828,-3.667,991.7,0.65,-999.0,yes,yes,no,300234066433290,BD2GI,AOML,SA_AGULHAS,South
2019-02-15T03:00:00Z,1550199600,2019,3,0,46.125,46.125,-67.827,-3.676,991.8,0.64,-999.0,yes,yes,no,300234066433290,BD2GI,AOML,SA_AGULHAS,South
2019-02-15T04:00:28Z,1550203229,2019,4,0,46.167,46.167,-67.826,-3.685,992.0,0.65,-999.0,yes,yes,no,300234066433290,BD2GI,AOML,SA_AGULHAS,South